User: anonymous   Login
Location: Unspecified
(0.0000°N, 0.0000°E)
Time: 12:37:37
(UTC+00:00)
Language:

Nova 2 - Orbit

View from above orbital plane
View from above orbital plane
View from above satellite
View from above satellite

Ground track
Ground track

The orbit data is extracted from the following two-line orbital elements,

1 19223U 88052A   18348.24330115  .00000060  00000-0  12160-3 0  9992
2 19223  89.9666  85.0046 0029990 212.3993 175.9615 13.22679536471914
Epoch (UTC): 14 December 2018 05:50:21
Eccentricity: 0.0029990
inclination: 89.9666°
perigee height: 1152 km
apogee height: 1197 km
right ascension of ascending node: 85.0046°
argument of perigee: 212.3993°
revolutions per day: 13.22679536
mean anomaly at epoch: 175.9615°
orbit number at epoch: 47191

The dashed part of the orbit path shows where the satellite is in the earth's shadow,  

DLR